Greenville, ME

5:11 AM EST on November 15, 2019 (GMT -0500)
Greenville

Weather History for KGNR - September, 2019

Change the Weather History Date:

Monday, September 2, 2019

  Actual Average (WUND) Record (WUND)
Temperature  
Mean Temperature 54 °F -  
Max Temperature 57 °F - - (-1)
Min Temperature 51 °F - - (-1)
Degree Days  
Heating Degree Days 11    
Growing Degree Days 4 (Base 50)    
Moisture  
Dew Point 53 °F    
Average Humidity 94    
Maximum Humidity 100    
Minimum Humidity 80    
Precipitation  
Precipitation 0.86 in - - ()
Sea Level Pressure  
Sea Level Pressure 30.06 in    
Wind  
Wind Speed 5 mph ()    
Max Wind Speed 9 mph    
Max Gust Speed 21 mph    
Averages and records for this station are not official NWS values.
T = Trace of Precipitation, MM = Missing Value Source: Averaged Metar Reports

Daily Weather History Graph

Daily Weather History Graph

Search for Another Location

Airport or City:

Astronomy

Sep. 02, 2019 Rise Set
Actual Time 6:00 AM EDT 7:14 PM EDT
Civil Twilight 5:30 AM EDT 7:45 PM EDT
Nautical Twilight 4:53 AM EDT 8:21 PM EDT
Astronomical Twilight 4:14 AM EDT 9:00 PM EDT
Moon 9:48 AM EDT (9/2) 9:23 PM EDT (9/2)
Length of Visible Light 14h 14m
Length of Day
13h 13m
Waxing Crescent, 15% of the Moon is Illuminated
Sep 2
Waxing Crescent
Sep 5
First Quarter
Sep 14
Full
Sep 21
Last Quarter
Sep 28
New

Hourly Weather History & Observations

Time (EDT) Temp. Dew Point Humidity Pressure Visibility Wind Dir Wind Speed Gust Speed Precip Events Conditions
12:56 AM 53.1 °F 48.0 °F 83% 30.24 in - SE 4.6 mph - N/A   Unknown
1:56 AM 54.0 °F 48.0 °F 80% 30.22 in - Variable 4.6 mph - N/A   Unknown
2:56 AM 53.1 °F 48.0 °F 83% 30.19 in - Variable 4.6 mph - N/A   Unknown
3:56 AM 51.1 °F 48.9 °F 92% 30.17 in - SE 6.9 mph - N/A   Unknown
4:56 AM 51.1 °F 50.0 °F 96% 30.17 in - SE 6.9 mph - N/A   Unknown
5:56 AM 52.0 °F 51.1 °F 97% 30.16 in - SSE 6.9 mph - 0.07 in   Unknown
6:56 AM 52.0 °F 52.0 °F 100% 30.14 in - SE 9.2 mph - 0.15 in   Unknown
7:56 AM 53.1 °F 52.0 °F 96% 30.12 in - SSE 8.1 mph - 0.07 in   Unknown
8:56 AM 54.0 °F 54.0 °F 100% 30.11 in - Variable 6.9 mph - 0.07 in   Unknown
10:56 AM 55.9 °F 55.0 °F 97% 30.07 in - South 8.1 mph 17.3 mph 0.06 in   Unknown
11:56 AM 55.9 °F 55.0 °F 97% 30.06 in - Variable 6.9 mph 18.4 mph 0.08 in   Unknown
12:56 PM 55.9 °F 54.0 °F 93% 30.05 in - South 9.2 mph 20.7 mph 0.10 in   Unknown
1:56 PM 55.9 °F 54.0 °F 93% 30.02 in - Variable 6.9 mph - 0.05 in   Unknown
2:56 PM 57.0 °F 55.0 °F 93% 29.99 in - Variable 4.6 mph - 0.04 in   Unknown
3:56 PM 57.0 °F 55.0 °F 93% 29.99 in - South 9.2 mph 18.4 mph 0.05 in   Unknown
4:56 PM 55.9 °F 54.0 °F 93% 29.98 in - Variable 5.8 mph - 0.05 in   Unknown
5:56 PM 55.9 °F 55.0 °F 97% 29.98 in - Variable 3.5 mph - 0.04 in   Unknown
6:56 PM 55.0 °F 54.0 °F 96% 29.97 in - SSE 5.8 mph - 0.02 in   Unknown
7:56 PM 55.0 °F 54.0 °F 96% 29.97 in - SSE 5.8 mph - 0.01 in   Unknown
8:56 PM 55.0 °F 54.0 °F 96% 29.96 in - Variable 3.5 mph - N/A   Unknown
9:56 PM 55.0 °F 55.0 °F 100% 29.96 in - Calm Calm - N/A   Unknown
10:56 PM 55.9 °F 55.0 °F 97% 29.96 in - SSW 3.5 mph - N/A   Unknown
11:56 PM 55.0 °F 54.0 °F 96% 29.95 in - Calm Calm - N/A   Unknown